Location: �mondeville
(49.4591°N, 1.3431°W)
Time: 10:54:45
(UTC+00:00)

Cosmos 2228 - Visible Passes

Search period start: 21 January 2020 00:00
Search period end: 31 January 2020 00:00
Orbit: 589 x 618 km, 82.5° (Epoch: 20 January)

Date Brightness Start Highest point End Pass type
(mag) Time Alt. Az. Time Alt. Az. Time Alt. Az.
21 Jan 6.2 04:28:39 10° ESE 04:30:40 13° E 04:32:43 10° NE visible
21 Jan 2.9 06:03:12 10° SSW 06:07:35 75° W 06:12:01 10° N visible
21 Jan 5.7 17:43:40 10° NW 17:47:03 22° W 17:50:23 10° SW visible
22 Jan 5.6 04:39:48 10° SE 04:43:00 20° E 04:46:12 10° NE visible
22 Jan 3.2 06:15:57 10° SSW 06:20:13 47° WNW 06:24:29 10° N visible
22 Jan 6.1 17:56:59 10° NW 17:59:23 15° W 18:01:45 10° WSW visible
23 Jan 4.9 04:51:32 10° SSE 04:55:22 30° E 04:59:13 10° NNE visible
23 Jan 3.8 06:28:58 10° SW 06:32:53 31° WNW 06:36:49 10° N visible
24 Jan 4.0 05:03:36 10° SSE 05:07:49 47° E 05:12:02 10° NNE visible
24 Jan 4.3 06:42:16 10° WSW 06:45:38 21° WNW 06:48:59 10° NNW visible
25 Jan 3.1 05:15:55 10° S 05:20:19 76° E 05:24:43 10° NNE visible
25 Jan 4.7 06:56:03 10° W 06:58:26 14° WNW 07:00:50 10° NNW visible
26 Jan 6.0 03:54:17 12° ESE 03:55:54 14° E 03:58:11 10° NE visible
26 Jan 2.9 05:31:19 39° SSW 05:32:52 69° WNW 05:37:16 10° N visible
27 Jan 5.4 04:08:48 21° ENE 04:08:48 21° ENE 04:11:33 10° NE visible
27 Jan 3.3 05:45:43 43° WNW 05:45:43 43° WNW 05:49:42 10° N visible
28 Jan 5.1 04:22:24 24° NE 04:22:24 24° NE 04:24:32 10° NNE visible
28 Jan 4.2 05:59:17 25° NW 05:59:17 25° NW 06:02:00 10° N visible
29 Jan 5.1 04:35:39 22° NNE 04:35:39 22° NNE 04:37:18 10° NNE visible
29 Jan 4.7 06:12:31 16° NW 06:12:31 16° NW 06:14:08 10° NNW visible
30 Jan 5.1 04:48:41 19° NNE 04:48:41 19° NNE 04:49:57 10° NNE visible
30 Jan 5.1 06:25:33 11° NW 06:25:33 11° NW 06:25:51 10° NNW visible
